Find Starlink 34976

NORAD ID: 65209 Int'l Des: 2025-176 Owner: SPXS Country: US Constellation: starlink operational
LEOCIRCULAR

Current View

Loading 3D Globe...

About Starlink 34976

Starlink 34976 (NORAD 65209) is a starlink constellation satellite (v2 mini) launched Aug 14, 2025 by SPXS of US. It operates in LEO, CIRCULAR orbit with a mass of 575.00 kg.

About Starlink 34976

Description loading...

Upcoming Passes

Passes for default location (London). Set your location on the main map for personalized predictions.

Altitude History

Loading altitude history...

Two-Line Element Set

1 65209U 25176M 26167.93769565 .00027683 00000-0 82749-3 0 9994
2 65209 53.1599 50.4652 0001271 96.6732 263.4415 15.34397964 48336
Epoch: Jun 16, 2026 • Age: 14 hours

Current Status

Altitude 462.8 km
Velocity 7.64 km/s
Sub-Earth Point 18.82°N, 33.51°W
Launch Date Aug 14, 2025
Age 0.8 years
Type internet

Technical Details

Classification Payload
Mass 575.00 kg
Dry Mass 530.00 kg
Total Mass 575.00 kg
Length 0.30 m
Diameter 4.10 m
Span 29.00 m
Shape Box + pan
Manufacturer SPXS
Bus Type Starlink V2MO
Phase Status In Orbit
Owner/State SPXS/US

Most Searched